TimeMDT,TemperatureF,Dew PointF,Humidity,Sea Level PressureIn,VisibilityMPH,Wind Direction,Wind SpeedMPH,Gust SpeedMPH,PrecipitationIn,Events,Conditions,WindDirDegrees,DateUTC
12:53 AM,52.0,44.1,74,29.97,10.0,East,5.8,-,N/A,,Clear,80,2013-08-23 06:53:00
1:53 AM,51.1,44.1,77,29.97,10.0,North,5.8,-,N/A,,Clear,350,2013-08-23 07:53:00
2:53 AM,52.0,45.0,77,29.98,10.0,NNE,10.4,-,N/A,,Partly Cloudy,20,2013-08-23 08:53:00
3:53 AM,52.0,46.0,80,29.96,10.0,East,5.8,-,0.00,,Mostly Cloudy,90,2013-08-23 09:53:00
4:53 AM,50.0,45.0,83,29.96,10.0,NNW,9.2,-,N/A,,Clear,340,2013-08-23 10:53:00
5:53 AM,52.0,46.0,80,29.97,10.0,Calm,Calm,-,N/A,,Scattered Clouds,0,2013-08-23 11:53:00
6:53 AM,48.9,45.0,86,29.97,10.0,ENE,8.1,-,N/A,,Clear,60,2013-08-23 12:53:00
7:53 AM,48.0,44.1,86,29.99,10.0,WNW,4.6,-,N/A,,Clear,300,2013-08-23 13:53:00
8:53 AM,60.1,48.9,67,29.96,10.0,SW,4.6,-,N/A,,Clear,230,2013-08-23 14:53:00
9:53 AM,64.9,46.0,50,29.94,10.0,Calm,Calm,-,N/A,,Clear,0,2013-08-23 15:53:00
10:53 AM,71.1,46.0,41,29.93,10.0,Variable,4.6,-,N/A,,Clear,0,2013-08-23 16:53:00
11:53 AM,73.9,44.1,34,29.92,10.0,Variable,6.9,-,N/A,,Clear,0,2013-08-23 17:53:00
12:53 PM,77.0,39.9,26,29.89,10.0,South,9.2,-,N/A,,Clear,170,2013-08-23 18:53:00
1:31 PM,75.2,39.2,27,30.17,10.0,Variable,3.5,-,N/A,Thunderstorm,Thunderstorm,0,2013-08-23 19:31:00
1:53 PM,73.0,39.0,29,29.90,10.0,North,17.3,24.2,N/A,Thunderstorm,Thunderstorm,350,2013-08-23 19:53:00
2:17 PM,69.8,46.4,43,30.16,10.0,NNW,9.2,-,0.00,Rain,Light Rain,330,2013-08-23 20:17:00
2:53 PM,75.0,43.0,32,29.87,10.0,WNW,11.5,21.9,0.00,,Mostly Cloudy,290,2013-08-23 20:53:00
3:53 PM,68.0,48.9,50,29.92,10.0,West,12.7,-,N/A,,Mostly Cloudy,260,2013-08-23 21:53:00
4:53 PM,63.0,51.1,65,29.95,10.0,West,16.1,23.0,0.00,Rain,Light Rain,280,2013-08-23 22:53:00
5:53 PM,62.1,48.9,62,29.96,10.0,North,5.8,-,0.00,,Overcast,10,2013-08-23 23:53:00
6:53 PM,64.0,46.9,54,29.93,10.0,North,6.9,-,0.00,,Mostly Cloudy,350,2013-08-24 00:53:00
7:53 PM,59.0,48.9,69,29.95,10.0,NNW,6.9,-,N/A,,Mostly Cloudy,340,2013-08-24 01:53:00
8:53 PM,59.0,48.0,67,29.91,10.0,North,6.9,-,N/A,,Overcast,350,2013-08-24 02:53:00
9:53 PM,57.9,48.0,70,29.89,10.0,NNE,8.1,-,N/A,,Mostly Cloudy,30,2013-08-24 03:53:00
10:53 PM,57.9,48.9,72,29.88,10.0,Variable,6.9,-,N/A,,Overcast,0,2013-08-24 04:53:00
11:53 PM,55.9,50.0,80,29.90,10.0,SW,3.5,-,0.00,Rain,Light Rain,220,2013-08-24 05:53:00